Home > Weather > Almería > Past weeks

Flag for Spain Weather for the Past 2 Weeks in Almería, Spain

Now
69 °F

Mild.


Feels Like: 69 °F
Forecast: 55 / 75 °F
Wind: 8 mph from Northeast

Location: Almeria / Aeropuerto

Current Time: May 3, 2016 at 11:52:25 AM

Latest Report: May 3, 2016 at 10:00 AM


Visibility: N/A

Pressure: 30.16 "Hg

Humidity: 24%

Dew Point: 30 °F

Location of AlmeríaLocation

Historic Weather in Almería — Graph

°F

Almería Temperature Yesterday

Maximum temperature yesterday: 70 °F (at 2:00 PM)
Minimum temperature yesterday: 56 °F (at 6:00 AM)
Average temperature yesterday: 65 °F

High & Low Weather Summary for the Past Weeks

 TemperatureHumidityPressure
High77 °F (Apr 18, 4:00 PM)89% (Apr 20, 12:00 PM)30.23 "Hg (Apr 20, 12:00 PM)
Low52 °F (May 3, 5:00 AM)27% (May 3, 9:00 AM)29.79 "Hg (Apr 27, 8:00 PM)
Average65 °F64%30.01 "Hg
* Reported Apr 18 9:00 AM — May 3 9:00 AM, Almería, Weather by CustomWeather, © 2016

Note: Actual official high and low records may vary slightly from our data, if they occured in-between our weather recording intervals... More about our weather records

Advertising

Almería Weather History for the Previous 24 Hours

Scroll right to see more
 ConditionsComfort  
Time TempWeatherWind HumidityBarometerVisibility
9:00 AM
Tue, May 3
62 °FRefreshingly cool.2 mph27%30.17 "HgN/A
8:00 AM55 °FRefreshingly cool.2 mph37%30.16 "HgN/A
6:00 AM53 °FCool.5 mph41%30.15 "HgN/A
5:00 AM52 °FClear.3 mph53%30.15 "Hg31 mi
3:00 AM55 °FRefreshingly cool.2 mph45%30.16 "HgN/A
2:00 AM56 °FRefreshingly cool.3 mph43%30.17 "HgN/A
1:00 AM59 °FRefreshingly cool.8 mph40%30.17 "HgN/A
12:00 AM59 °FRefreshingly cool.9 mph38%30.18 "HgN/A
11:00 PM
Mon, May 2
60 °FRefreshingly cool.10 mph33%30.16 "HgN/A
10:00 PM62 °FRefreshingly cool.12 mph35%30.14 "HgN/A
9:00 PM64 °FMild.9 mph34%30.12 "HgN/A
8:00 PM68 °FSunny.12 mph32%30.10 "Hg31 mi
7:00 PM70 °FMild.13 mph30%30.10 "HgN/A
6:00 PM70 °FMild.14 mph31%30.11 "HgN/A
5:00 PM68 °FSunny.16 mph39%30.12 "Hg31 mi
4:00 PM69 °FMild.15 mph39%30.14 "HgN/A
3:00 PM70 °FMild.15 mph31%30.15 "HgN/A
2:00 PM70 °FSunny.13 mph29%30.16 "Hg31 mi
1:00 PM70 °FMild.13 mph28%30.17 "HgN/A
12:00 PM69 °FMild.10 mph33%30.18 "HgN/A
11:00 AM67 °FMild.8 mph36%30.18 "HgN/A
Weather by CustomWeather, © 2016

See weather overviewHow to use our weather pages